Regional Weather Roundup
Issued by NWS Lake Charles, LA

Home | Current Version | Previous Version | Text Only | Print | Product List | Glossary On
Versions: 1 2 3 4 5 6 7 8 9 10 11 12 13 14 15 16 17 18 19 20 21 22 23 24 25 26 27 28 29 30 31 32 33 34 35 36 37 38 39 40 41 42 43 44 45 46 47 48 49 50
000
ASUS44 KLCH 241710
RWRLCH
REGIONAL WEATHER ROUNDUP
NATIONAL WEATHER SERVICE LAKE CHARLES LA
1200 PM CDT MON JUL 24 2017

Note: "fair" indicates few or no clouds below 12,000 feet with no
significant weather and/or obstructions to visibility.


ACROSS SOUTHEAST TEXAS

CITY           SKY/WX    TMP DP  RH WIND       PRES   REMARKS
BEAUMONT       FAIR      90  75  61 W10       30.03R HX 100
BEAUMONT CITY  PTSUNNY   89  75  62 MISG      30.04S HX 100
ORANGE         FAIR      89  78  69 W8        30.05S HX 102
JASPER         DRIZZLE   77  71  82 W7        30.08S
$$

ACROSS CENTRAL LOUISIANA

CITY           SKY/WX    TMP DP  RH WIND       PRES   REMARKS
LEESVILLE      LGT RAIN  73  71  93 W6        30.04F
FULLERTON      LGT RAIN  74  73  97 CALM      30.01F FOG
ALEXANDRIA INT LGT RAIN  77  74  90 W9        30.01S
ESLER FIELD    PTSUNNY   79  74  84 W9        30.03R
DERIDDER       LGT RAIN  73  72  96 NW3       30.07F
OAKDALE        FAIR      80  72  78 W9        30.05R
OPELOUSAS      LGT RAIN  74  73  96 W3        30.05R
$$

ACROSS SOUTHWEST AND SOUTH CENTRAL LOUISIANA

CITY           SKY/WX    TMP DP  RH WIND       PRES   REMARKS
SULPHUR        FAIR      89  77  67 W8        30.04S HX 100
LAKE CHARLES   FAIR      89  75  63 W10G18    30.03R
CHENNAULT INT  NOT AVBL
CAMERON PHI    SUNNY     88  77  70 SW8G20    30.03S HX 100
DEQUINCY       CLOUDY    77  71  81 N7G18     30.06R
JENNINGS       FAIR      87  77  73 W17G25    30.04R
LAFAYETTE      FAIR      90  76  63 W13       30.03R HX 101
NEW IBERIA     FAIR      88  75  65 SW7       30.03R
ABBEVILLE      FAIR      84  77  79 SW9G20    30.04R
PATTERSON      PTSUNNY   89  79  72 W14       30.03S HX 104
SALT POINT       N/A     88  79  74 SW9       30.02S HX 103
$$

SELECTED SITES ACROSS THE REGION

CITY           SKY/WX    TMP DP  RH WIND       PRES   REMARKS
HOUSTON BUSH   PTSUNNY   90  73  57 SW9       30.02S
HOUSTON HOBBY  CLOUDY    90  72  55 S6        30.02R
GALVESTON      FAIR      89  77  67 S16       30.04R HX 101
COLLEGE STAT   FAIR      90  72  55 S10       30.00F
CONROE         FAIR      88  74  63 SW5       30.03F
HUNTSVILLE     FAIR      84  73  69 S8        30.04S
LUFKIN         LGT RAIN  73  72  96 S7        30.03F FOG
SHREVEPORT     CLOUDY    79  74  84 W12       30.01R
MONROE         PTSUNNY   85  74  69 NW8       29.99S
NATCHEZ MS     NOT AVBL
BATON ROUGE    LGT RAIN  76  73  91 W13       30.04R FOG
N.O. INTL ARPT CLOUDY    89  75  63 SW12      30.02S
SLIDELL        PTSUNNY   87  76  69 VRB7      30.01S
$$

MARINE REPORTS

STATION/POSITION TIME  SKY/WX   TEMP    WIND        PRES    VSBY
                                AIR SEA DIR/SP/G
                 (UTC)          (F)     (DEG/KT/KT) (MB)    (MI)
BUOY 30 S HIGH I 1550            86 86  230/ 14/ 17 1016.5
WVE H/P(F/S)=  4/ 6

SEA RIM ST PARK  1700            87     230/ 12/ 14 1017.4R
PORT ARTHUR      1648            87 87  260/  9/ 16 1017.1R
SABINE PASS N    1648            88 87  230/  6/ 15 1018.5R
TEXAS POINT      NOT AVBL
CALCASIEU PASS   1648            86 85  260/ 11/ 15 1016.3R
LK CHARLES BEACH 1648            84 84              1017.5R
MARSH ISLAND     NOT AVBL
FRESH WATER LOCK 1648            87 83  230/ 12/ 17 1017.1R
AMERADA PASS     1648            86 84  220/  4/  9 1017.2R
$$



USA.gov is the U.S. government's official web portal to all federal, state and local government web resources and services.